THY68 LTFM-VTBS

Flight info

Callsign THY68
Flight time N/A
Altitude 35000
Route EKAWE1E/36 EKAWE UT643 GAKSU UT310 SIN UN644 ROLIN N644 LAGAS M747 SUBUT T923 ERLEV M11 RODAR A909 LEMOD N644 DI A466 SULOM M890 LKN R460 CEA L507 IGONI DCT WILLA WILLA1C
Aircraft B77W/H-SDE1E2E3FGHIJ2J3J4J5M1RWXY/LB1D1

Departure

Time 2026-05-01 09:35
Airport İstanbul Airport (LTFM)

Arrival

Time N/A
Airport Suvarnabhumi Airport (VTBS)
Time Latitude Longitude Altitude Speed Heading
2026-05-01 09:06 41.26796 28.74913 339 ft 0 kts 181°
2026-05-01 09:26 41.26800 28.74913 339 ft 2 kts 180°
2026-05-01 09:26 41.26816 28.74913 337 ft 2 kts 180°
2026-05-01 09:27 41.26849 28.74912 333 ft 2 kts 176°
2026-05-01 09:27 41.26866 28.74911 333 ft 2 kts 167°
2026-05-01 09:27 41.26880 28.74901 333 ft 2 kts 126°
2026-05-01 09:28 41.26888 28.74881 333 ft 2 kts 102°
2026-05-01 09:28 41.26889 28.74867 335 ft 1 kts 91°
2026-05-01 09:28 41.26889 28.74866 335 ft 0 kts 91°
2026-05-01 09:30 41.26890 28.74884 333 ft 5 kts 89°
2026-05-01 09:31 41.26891 28.74969 346 ft 14 kts 89°
2026-05-01 09:31 41.26893 28.75132 339 ft 20 kts 89°
2026-05-01 09:31 41.26871 28.75369 339 ft 4 kts 161°
2026-05-01 09:32 41.26835 28.75376 335 ft 8 kts 174°
2026-05-01 09:32 41.26592 28.75384 334 ft 28 kts 179°
2026-05-01 09:32 41.26431 28.75387 334 ft 18 kts 179°
2026-05-01 09:33 41.26335 28.75390 334 ft 13 kts 179°
2026-05-01 09:33 41.26260 28.75412 335 ft 8 kts 128°
2026-05-01 09:33 41.26249 28.75503 339 ft 0 kts 89°
2026-05-01 09:34 41.26250 28.75566 339 ft 15 kts 89°
2026-05-01 09:34 41.26360 28.75667 335 ft 17 kts 359°
2026-05-01 09:35 41.26705 28.75661 336 ft 84 kts 359°
2026-05-01 09:35 41.28685 28.75605 528 ft 178 kts
2026-05-01 09:35 41.29924 28.75577 1340 ft 175 kts
2026-05-01 09:36 41.31027 28.76097 2182 ft 168 kts 38°
2026-05-01 09:36 41.31711 28.77428 2373 ft 185 kts 60°
2026-05-01 09:36 41.32617 28.78655 2545 ft 197 kts 25°
2026-05-01 09:36 41.33935 28.79407 2876 ft 214 kts 27°
2026-05-01 09:37 41.35292 28.80347 3406 ft 223 kts 29°
2026-05-01 09:37 41.38068 28.82221 4686 ft 229 kts 16°
2026-05-01 09:37 41.39661 28.82438 5348 ft 231 kts
2026-05-01 09:38 41.42842 28.82068 6708 ft 234 kts 357°
2026-05-01 09:38 41.44496 28.81844 7200 ft 238 kts 357°
2026-05-01 09:38 41.46117 28.81625 7908 ft 237 kts 356°
2026-05-01 09:39 41.49546 28.81182 8834 ft 251 kts 355°
2026-05-01 09:39 41.51332 28.80956 9247 ft 261 kts 355°
2026-05-01 09:39 41.53153 28.80728 9826 ft 266 kts 354°
2026-05-01 09:40 41.55030 28.80495 10273 ft 274 kts 354°
2026-05-01 09:40 41.59054 28.79995 10738 ft 310 kts 354°
2026-05-01 09:40 41.61255 28.80126 10849 ft 329 kts 16°
2026-05-01 09:41 41.63298 28.81597 11016 ft 348 kts 38°
2026-05-01 09:41 41.67122 28.86037 11832 ft 375 kts 39°
2026-05-01 09:41 41.69129 28.88345 12440 ft 385 kts 39°
2026-05-01 09:42 41.71192 28.90688 13215 ft 391 kts 38°
2026-05-01 09:42 41.73218 28.93151 13814 ft 399 kts 47°
2026-05-01 09:42 41.75825 28.99876 14846 ft 417 kts 65°
2026-05-01 09:43 41.78164 29.06939 16766 ft 413 kts 65°
2026-05-01 09:43 41.79351 29.10446 17630 ft 414 kts 64°
2026-05-01 09:43 41.80560 29.13981 18282 ft 422 kts 64°
2026-05-01 09:44 41.83059 29.21248 19229 ft 440 kts 64°
2026-05-01 09:44 41.84349 29.25005 19671 ft 449 kts 65°
2026-05-01 09:44 41.85666 29.28844 20179 ft 456 kts 65°
2026-05-01 09:45 41.87000 29.32744 20716 ft 462 kts 65°
2026-05-01 09:45 41.89711 29.40678 21810 ft 473 kts 65°
2026-05-01 09:45 41.90927 29.44802 22301 ft 478 kts 76°
2026-05-01 09:46 41.91471 29.49216 22705 ft 480 kts 86°
2026-05-01 09:46 41.91793 29.53704 23180 ft 486 kts 87°
2026-05-01 09:46 41.92074 29.58183 23706 ft 491 kts 88°
2026-05-01 09:46 41.92367 29.62773 24175 ft 495 kts 88°
2026-05-01 09:47 41.92685 29.67397 24659 ft 498 kts 88°
2026-05-01 09:47 41.93029 29.72037 25154 ft 501 kts 88°
2026-05-01 09:47 41.93393 29.76712 25627 ft 504 kts 88°
2026-05-01 09:47 41.93769 29.81406 26071 ft 507 kts 88°
2026-05-01 09:48 41.94151 29.86126 26507 ft 510 kts 88°
2026-05-01 09:48 41.94535 29.90884 26932 ft 513 kts 89°
2026-05-01 09:48 41.94919 29.95664 27354 ft 516 kts 89°
2026-05-01 09:48 41.95297 30.00415 27767 ft 519 kts 89°
2026-05-01 09:49 41.95678 30.05246 28173 ft 522 kts 89°
2026-05-01 09:49 41.96058 30.10110 28569 ft 524 kts 90°
2026-05-01 09:49 41.96438 30.15000 28947 ft 526 kts 90°
2026-05-01 09:49 41.96817 30.19915 29314 ft 529 kts 90°
2026-05-01 09:50 41.97195 30.24835 29648 ft 531 kts 90°
2026-05-01 09:50 41.97572 30.29777 30027 ft 532 kts 91°
2026-05-01 09:50 41.97822 30.33051 30326 ft 531 kts 91°
2026-05-01 09:50 41.98323 30.39643 30848 ft 529 kts 90°
2026-05-01 09:51 41.98689 30.44498 31178 ft 529 kts 90°
2026-05-01 09:51 41.99057 30.49425 31499 ft 530 kts 90°
2026-05-01 09:51 41.99422 30.54354 31823 ft 530 kts 90°
2026-05-01 09:51 41.99785 30.59277 32177 ft 529 kts 90°
2026-05-01 09:52 42.00146 30.64200 32512 ft 529 kts 90°
2026-05-01 09:52 42.00389 30.67528 32728 ft 529 kts 90°
2026-05-01 09:52 42.00746 30.72455 33039 ft 529 kts 90°
2026-05-01 09:52 42.01101 30.77383 33352 ft 529 kts 89°
2026-05-01 09:53 42.01450 30.82242 33651 ft 529 kts 89°
2026-05-01 09:53 42.01801 30.87175 33955 ft 529 kts 89°
2026-05-01 09:53 42.02151 30.92112 34220 ft 530 kts 89°
2026-05-01 09:53 42.02498 30.97039 34460 ft 529 kts 89°
2026-05-01 09:54 42.02843 31.01960 34727 ft 528 kts 89°
2026-05-01 09:54 42.03185 31.06879 34988 ft 527 kts 89°
2026-05-01 09:54 42.03525 31.11797 35089 ft 530 kts 89°
2026-05-01 09:54 42.03864 31.16749 35134 ft 532 kts 89°
2026-05-01 09:55 42.04538 31.26643 35139 ft 528 kts 89°
2026-05-01 09:55 42.05197 31.36429 35144 ft 524 kts 89°
2026-05-01 09:56 42.05839 31.46119 35148 ft 523 kts 89°
2026-05-01 09:56 42.06475 31.55868 35147 ft 523 kts 89°
2026-05-01 09:57 42.07105 31.65640 35142 ft 524 kts 89°
2026-05-01 09:57 42.07729 31.75428 35144 ft 525 kts 89°
2026-05-01 09:58 42.08341 31.85171 35143 ft 526 kts 89°
2026-05-01 09:58 42.08951 31.94996 35136 ft 527 kts 90°
2026-05-01 09:59 42.09552 32.04836 35145 ft 527 kts 90°
2026-05-01 09:59 42.10146 32.14688 35152 ft 529 kts 90°
2026-05-01 10:00 42.10734 32.24587 35114 ft 529 kts 90°
2026-05-01 10:00 42.11311 32.34446 35118 ft 526 kts 90°
2026-05-01 10:01 42.11874 32.44190 35109 ft 524 kts 90°
2026-05-01 10:01 42.12429 32.53975 35115 ft 523 kts 90°
2026-05-01 10:02 42.12976 32.63743 35120 ft 521 kts 90°
2026-05-01 10:02 42.13512 32.73469 35121 ft 520 kts 90°
2026-05-01 10:03 42.14038 32.83178 35118 ft 518 kts 90°
2026-05-01 10:03 42.14555 32.92859 35126 ft 518 kts 90°
2026-05-01 10:04 42.15060 33.02493 35122 ft 519 kts 90°
2026-05-01 10:04 42.15562 33.12200 35110 ft 519 kts 90°
2026-05-01 10:05 42.16056 33.21915 35103 ft 519 kts 90°
2026-05-01 10:05 42.16542 33.31640 35112 ft 519 kts 90°
2026-05-01 10:06 42.17020 33.41360 35111 ft 519 kts 91°
2026-05-01 10:06 42.17489 33.51084 35111 ft 520 kts 91°
2026-05-01 10:07 42.17949 33.60778 35095 ft 521 kts 91°